Location: Brno
(49.2000°N, 16.6330°E)
Time: 04:02:32
(UTC+02:00)

Daily predictions for brighter satellites

Satellite Brightness Start Highest point End
(mag) Time Altitude Azimuth Time Altitude Azimuth Time Altitude Azimuth
NOSS 2-3 (C) 4.3 00:03:43 28° S 00:06:07 49° ESE 00:11:44 10° NE
COS B Rocket 3.9 00:04:20 10° N 00:07:56 48° W 00:09:55 25° SSW
H-2A R/B 4.2 00:06:46 10° SW 00:10:26 18° W 00:14:08 10° NW
Cosmos 1892 3.5 00:10:31 31° SE 00:11:33 37° E 00:15:06 10° NNE
Cosmos 2227 Rocket 3.1 00:07:52 10° SW 00:13:21 48° NW 00:18:51 10° NNE
Cosmos 2263 Rocket 4.2 00:16:02 11° ESE 00:18:04 13° E 00:20:39 10° ENE
GEOS 3 Rocket 3.7 00:18:38 29° SSE 00:21:16 60° SW 00:26:25 10° NW
Cosmos 2333 Rocket 4.3 00:18:35 10° WNW 00:21:56 16° W 00:25:16 10° SW
NOSS 3-2 (A) 4.3 00:15:35 10° NW 00:22:49 66° NE 00:30:42 10° SE
SL-16 R/B 3.1 00:18:31 10° NW 00:23:41 36° WSW 00:26:25 23° SSW
Cosmos 494 Rocket 4.1 00:21:50 10° NNW 00:27:08 77° ENE 00:30:03 27° SSE
NOSS 2-3 (D) 4.0 00:24:21 26° SSW 00:27:10 66° SE 00:33:02 10° NE
Landsat 5 3.6 00:25:28 33° SSE 00:27:28 88° ENE 00:32:03 10° NNW
Meteor 2-10 Rocket 3.7 00:23:28 10° NNW 00:29:03 90° NNE 00:32:07 29° S
BREEZE-M DEB (TANK) 2.9 00:20:32 10° WNW 00:29:36 61° SSW 00:31:11 31° SE
Cosmos 1869 Rocket 4.5 00:27:48 20° SW 00:30:31 43° WNW 00:34:50 10° N
Cosmos 2227 4.4 00:28:01 29° S 00:30:44 56° ESE 00:36:18 10° NE
H-2A R/B 2.4 00:26:56 10° NNE 00:31:09 80° ESE 00:32:56 35° S
Cosmos 1733 Rocket 3.3 00:29:39 34° SSE 00:31:24 60° E 00:35:48 10° NNE
SeaSat 1 3.3 00:30:09 26° SSW 00:32:08 36° WSW 00:36:42 10° NW
Cosmos 1689 Rocket 2.4 00:34:55 49° SSW 00:35:36 65° WSW 00:38:54 10° NNW
Cosmos 1825 4.1 00:34:35 16° ESE 00:35:46 18° E 00:38:25 10° NE
Cosmos 1125 Rocket 4.4 00:32:46 13° SW 00:37:20 47° WNW 00:42:30 10° NNE
CZ-2C R/B 3.3 00:34:14 10° NNE 00:39:08 39° E 00:41:26 26° SE
Cosmos 1378 Rocket 4.3 00:35:55 10° N 00:40:07 43° ENE 00:42:12 25° SE
Nadezhda 3 Rocket 4.0 00:34:03 10° N 00:40:17 78° E 00:43:56 27° SSE
Cosmos 2297 Rocket 3.2 00:35:08 10° WSW 00:40:30 43° NW 00:45:54 10° NNE
Cosmos 1238 Rocket 3.4 00:37:06 10° N 00:41:10 45° ENE 00:42:31 30° SE
ALOS 2 3.0 00:39:40 32° SSW 00:41:24 51° W 00:45:42 10° NNW
ASTEX 1 3.4 00:38:40 10° N 00:43:35 78° W 00:45:58 31° SSW
Cosmos 807 4.3 00:40:33 10° N 00:43:38 72° E 00:44:24 48° SSE
Cosmos 2074 Rocket 4.2 00:39:58 23° SSW 00:44:00 68° WNW 00:50:19 10° N
Cosmos 1610 Rocket 4.4 00:40:52 27° S 00:44:22 88° ESE 00:50:33 10° N
Cosmos 1782 2.7 00:40:59 10° N 00:44:59 84° E 00:46:21 40° SSE
Meteor 1-27 Rocket 4.0 00:39:36 10° N 00:45:27 63° ENE 00:48:53 25° SSE
Cosmos 389 Rocket 4.3 00:43:43 10° NW 00:46:28 21° W 00:47:30 18° WSW
Cosmos 1943 3.4 00:41:29 10° NNW 00:47:12 70° ENE 00:51:01 21° SE
Helios 1A Rocket 3.0 00:45:52 10° NNE 00:50:02 69° ESE 00:51:33 38° S
Cosmos 44 3.9 00:50:59 31° S 00:53:09 49° ESE 00:58:26 10° NE
Cosmos 1340 Rocket 2.8 00:53:30 38° SSW 00:54:53 75° WNW 00:58:51 10° N
ATLAS 2AS CENTAUR R/B 3.6 00:47:44 10° WSW 00:55:22 59° NW 01:03:28 10° NE
Cosmos 1607 3.9 00:49:32 10° NW 00:55:39 66° WSW 00:59:05 27° SSE
CZ-4B R/B 2.4 00:55:41 31° SW 00:56:23 34° W 00:59:33 10° NNW
Cosmos 1603 4.1 00:52:14 10° NW 00:57:41 48° WSW 01:00:14 29° SSW
Meteor 2-6 Rocket 4.3 00:55:33 10° NNW 01:01:21 75° W 01:04:32 29° S
Okean 2 Rocket 4.2 01:05:03 24° SE 01:07:01 34° E 01:11:06 10° NNE
ATLAS 3B R/B 4.1 01:02:03 10° WNW 01:07:01 21° WSW 01:09:33 17° SW
Cosmos 1782 Rocket 4.3 01:06:52 27° SE 01:08:38 41° E 01:12:46 10° NNE
CZ-4C R/B 2.8 01:02:01 10° NW 01:08:56 73° SW 01:14:38 19° SSE
MOS 1-B Rocket 3.9 01:06:31 29° S 01:09:31 70° WSW 01:15:08 10° NNW
Coronas F rocket 1.8 01:11:05 46° W 01:11:14 46° WNW 01:13:53 10° N
RESURS DK-1 4.3 01:11:27 16° ESE 01:12:26 17° ESE 01:15:12 10° ENE
Cosmos 2154 Rocket 4.0 01:09:30 27° SSW 01:13:11 81° W 01:19:30 10° N
Cosmos 1674 Rocket 4.2 01:12:08 10° NNW 01:16:21 43° W 01:18:00 30° SW
USA 238 DEB 4.4 01:10:21 10° NW 01:16:43 38° WSW 01:19:50 26° SSW
USA 238 4.4 01:10:27 10° NW 01:16:50 38° WSW 01:19:58 26° SSW
PSLV R/B 3.9 01:20:22 33° SSE 01:22:08 77° ENE 01:26:13 10° N
Cosmos 921 Rocket 2.9 01:23:01 35° SSW 01:24:43 80° WNW 01:28:58 10° NNE
Cosmos 2084 Rocket 3.2 01:23:21 30° SW 01:25:09 74° NW 01:28:59 10° NE
Cosmos 1606 3.0 01:22:45 10° NNW 01:26:32 55° W 01:27:42 38° SSW
Cosmos 1975 Rocket 3.0 01:22:31 10° N 01:26:57 85° E 01:28:54 33° SSE
Cosmos 44 Rocket 4.2 01:26:31 13° WSW 01:31:05 51° NW 01:36:13 10° NNE
ERBS 4.4 01:28:58 10° W 01:32:03 29° NNW 01:35:08 10° NE
Cosmos 1862 3.2 01:31:12 38° S 01:32:40 88° WNW 01:36:44 10° N
Cosmos 1908 Rocket 3.7 01:35:51 32° SSW 01:37:42 63° WNW 01:42:02 10° N
Geosat 4.2 01:35:50 10° NNE 01:40:51 69° NW 01:44:02 23° SW
USA 234 3.3 01:34:43 10° ESE 01:41:16 87° NE 01:47:51 10° NW
CENTAUR R/B 3.7 01:35:28 10° NW 01:42:54 57° NE 01:50:58 10° ESE
Cosmos 2341 Rocket 4.3 01:42:14 24° SSW 01:46:12 60° WNW 01:52:31 10° N
NOSS 3-2 (C) 4.0 01:43:22 10° NW 01:50:39 61° SW 01:57:11 16° SSE
PSLV R/B 4.4 01:46:46 10° NNE 01:50:44 39° E 01:52:49 23° SSE
Cosmos 1959 Rocket 4.5 01:50:24 25° S 01:54:17 86° E 02:00:32 10° N
CZ-2C R/B 3.6 01:53:24 26° SSW 01:56:25 50° W 02:01:51 10° NNW
SL-8 Rocket 4.1 01:56:35 25° SSW 02:00:31 75° W 02:06:52 10° N
Okean 3 4.3 01:56:50 10° NNW 02:00:51 38° W 02:02:30 27° SW
Iridium 4 Rocket 3.7 01:56:18 10° N 02:00:53 61° E 02:04:14 20° SSE
Cosmos 2263 Rocket 2.2 01:57:43 26° SSW 02:01:02 77° ESE 02:06:44 10° NNE
Cosmos 1408 3.1 01:59:39 31° SW 02:01:06 50° WNW 02:04:48 10° N
Cosmos 1867 3.8 01:57:34 10° NW 02:02:50 49° WSW 02:05:53 24° S
Cosmos 1339 Rocket 4.5 01:57:35 10° N 02:03:43 83° E 02:08:11 19° SSE
Cosmos 2151 Rocket 3.9 02:03:28 25° SSE 02:05:53 60° E 02:10:18 10° NNE
ERS-2 4.3 02:03:17 10° NE 02:05:58 19° E 02:08:18 12° SE
SL-08 R/B 4.3 02:02:26 10° SE 02:07:10 48° ENE 02:11:52 10° N
Cosmos 1624 Rocket 4.3 02:05:27 25° S 02:08:25 57° ESE 02:13:34 10° NNE
Elektron 3 3.9 02:06:19 10° NW 02:09:13 65° SW 02:13:31 10° SE
Cosmos 2218 Rocket 4.1 02:05:50 24° SSW 02:09:51 76° W 02:16:15 10° N
Cosmos 1825 3.1 02:09:31 25° SW 02:11:07 38° WNW 02:14:43 10° N
SL-27 R/B 3.2 02:08:32 10° NNW 02:12:08 53° ENE 02:15:08 14° SE
Cosmos 1812 3.5 02:09:46 10° N 02:13:34 48° ENE 02:16:25 16° SSE
NOSS 3-2 (A) 4.5 02:06:46 10° NW 02:13:36 40° WSW 02:18:33 20° S
COSMOS 2406 3.2 02:10:42 10° NNW 02:16:33 88° ENE 02:22:18 10° SSE
ATLAS 5 CENTAUR R/B 3.7 02:11:12 10° NW 02:16:38 41° NE 02:22:28 10° ESE
Meteor 2-8 Rocket 4.4 02:10:35 10° NNW 02:16:39 74° W 02:20:55 21° S
NOSS 3-4 (A) 3.5 02:12:05 21° SW 02:16:40 88° SE 02:23:23 10° NE
NOSS 3-4 (C) 3.5 02:12:12 21° SW 02:16:46 87° SE 02:23:28 10° NE
Abrixas rocket 3.1 02:18:50 31° SSE 02:19:08 31° SSE 02:22:09 10° E
CZ-2C R/B 3.7 02:14:40 10° N 02:19:22 34° WNW 02:22:57 15° WSW
Cosmos 2278 Rocket 4.4 02:19:18 10° SE 02:22:24 15° E 02:25:31 10° ENE
Cosmos 2366 rocket 4.1 02:19:50 22° SSW 02:23:53 69° WNW 02:30:07 10° N
BREEZE-M TANK 2.6 02:23:19 10° W 02:28:50 14° SE 02:29:16 10° SE
GP-B 3.8 02:27:22 10° N 02:31:44 51° E 02:35:19 15° SSE
Okean 1 3.5 02:29:31 10° N 02:33:31 71° E 02:36:33 17° SSE
Cosmos 909 Rocket 4.3 02:33:26 20° SSW 02:38:07 75° ESE 02:45:50 10° NE
Cosmos 1184 Rocket 3.7 02:37:01 25° SW 02:38:29 39° WNW 02:41:42 10° N
Cosmos 1727 Rocket 4.5 02:35:38 10° NNW 02:41:32 45° W 02:45:39 19° SSW
Cosmos 1242 Rocket 3.4 02:38:38 10° NNW 02:41:47 32° W 02:43:02 24° SW
Okean 2 Rocket 4.5 02:42:25 16° WSW 02:45:09 28° WNW 02:49:04 10° N
RESURS DK-1 2.7 02:47:22 20° SW 02:50:06 58° NW 02:54:13 10° NNE
Cosmos 1190 Rocket 4.5 02:47:29 10° NW 02:52:26 43° WSW 02:56:00 17° SSW
Cosmos 1140 Rocket 3.8 02:48:15 10° NNW 02:53:25 68° ENE 02:58:31 10° SSE
CZ-4C R/B 4.2 02:51:57 10° WNW 02:56:43 19° WSW 02:59:45 15° SW
NPP 3.7 02:55:23 10° NNE 03:00:49 89° WNW 03:05:13 16° SSW
Cosmos 2056 Rocket 3.9 03:02:04 17° SW 03:06:07 56° WNW 03:11:16 10° NNE
Cosmos 1602 4.5 03:02:56 12° SSE 03:06:22 48° E 03:10:06 10° NNE
Cosmos 407 Rocket 4.0 03:02:37 10° NW 03:07:24 39° WSW 03:11:23 14° SSW
Cosmos 1850 Rocket 4.3 03:02:50 10° NNW 03:08:04 70° ENE 03:13:19 10° SSE
Cosmos 1300 Rocket 3.6 03:06:33 17° SSW 03:09:49 73° W 03:14:13 10° N
Cosmos 1741 Rocket 4.3 03:05:00 10° NNW 03:10:18 71° ENE 03:15:33 10° SSE
Cosmos 1633 4.1 03:07:34 10° SSE 03:10:47 31° E 03:14:03 10° NNE
Cosmos 1934 Rocket 4.1 03:07:36 11° S 03:13:35 79° E 03:19:45 10° NNE
COSMOS 2487 2.6 03:10:11 10° NNW 03:13:50 79° ENE 03:17:27 10° SSE
Spot 4 Rocket 4.4 03:08:59 10° NNE 03:14:07 64° ESE 03:19:10 10° S
Timation 2 Rocket 4.3 03:09:35 10° NNW 03:15:49 68° NE 03:21:48 10° SE
Cosmos 676 Rocket 4.4 03:11:22 10° NW 03:16:17 44° WSW 03:21:02 11° S
Meteor 1-19 Rocket 4.4 03:10:42 10° N 03:16:33 85° E 03:22:24 10° SSE
Gbstr 26 Del rocket 3.7 03:14:11 16° SSW 03:16:38 31° SE 03:19:59 10° E
Cosmos 1833 Rocket 4.5 03:13:33 10° NNW 03:18:42 35° NE 03:23:49 10° ESE
CZ-2D R/B 3.3 03:14:31 10° NNE 03:19:39 40° E 03:24:46 10° SSE
IRAS Rocket 4.4 03:17:24 10° NNE 03:22:51 63° WNW 03:27:45 13° SSW
Cosmos 1892 Rocket 4.0 03:18:54 10° N 03:23:15 63° ENE 03:27:32 10° SSE
USA 234 3.8 03:18:53 10° SSE 03:24:45 35° SW 03:30:39 10° WNW
UNK 3.9 03:28:56 10° SSE 03:33:33 81° ENE 03:38:14 10° NNW
UNKNOWN OBJECT B 4.4 03:29:54 10° NNE 03:33:38 32° E 03:37:20 10° SSE
Meteor 2-15 Rocket 4.5 03:27:26 10° NNW 03:33:38 82° W 03:39:47 10° S
CENTAUR R/B 3.3 03:26:20 10° NW 03:33:45 51° WSW 03:41:39 10° SSE
IRS-1D 3.9 03:29:06 10° NNE 03:34:10 61° ESE 03:39:07 10° S
Cosmos 1536 3.0 03:31:21 10° S 03:35:24 75° E 03:39:29 10° NNE
Meteor 1-11 Rocket 3.9 03:30:50 10° SSW 03:36:48 86° WNW 03:42:49 10° NNE
IRS-1C 4.3 03:33:05 10° N 03:38:23 64° WNW 03:43:34 10° SSW
ERS-2 2.9 03:36:27 10° N 03:39:56 39° WNW 03:43:09 12° SW
USA 161 2.1 03:37:41 12° SSW 03:40:08 39° W 03:42:57 10° NNW
Cosmos 1844 Rocket 2.8 03:36:38 12° SSW 03:41:59 78° WNW 03:47:42 10° NNE
SL-16 R/B 2.6 03:36:28 10° SSE 03:42:42 78° WSW 03:48:58 10° NNW
Cosmos 2263 Rocket 3.8 03:40:58 10° W 03:45:36 25° NW 03:50:15 10° NNE
Cosmos 2123 Rocket 4.3 03:42:27 10° NNW 03:48:37 55° W 03:54:44 10° SSW
Cosmos 1605 Rocket 4.0 03:42:45 10° SSW 03:48:57 81° W 03:55:18 10° N
BREEZE-M DEB (TANK) 2.6 03:41:42 10° W 03:49:04 84° N 03:51:44 10° E
SME Rocket 2.9 03:46:17 10° SSE 03:50:02 75° WSW 03:54:33 10° NNW
Cosmos 1821 Rocket 4.4 03:44:09 10° SSW 03:50:21 51° WNW 03:56:36 10° N
Cosmos 614 Rocket 4.0 03:45:29 10° NNW 03:50:37 64° WSW 03:55:41 10° S
Cosmos 1461 3.7 03:46:12 10° SSW 03:50:46 53° ESE 03:55:15 10° NE
BREEZE-M DEB (TANK) 4.2 03:47:07 10° WNW 03:51:47 78° SSW 04:12:33 10° ESE
Cosmos 1844 3.8 03:46:32 10° SSW 03:52:15 85° WNW 03:58:03 10° NNE
Okean 1 Rocket 4.1 03:48:38 10° SW 03:52:34 33° WNW 03:56:38 10° N
Meteor 1-23 Rocket 4.3 03:48:11 10° NNW 03:53:54 70° W 03:59:31 10° S
Abrixas rocket 2.2 03:52:37 10° WSW 03:55:59 74° S 03:59:20 10° E
EO 1 Del DPAF 3.5 03:53:56 10° S 03:57:45 53° W 04:01:35 10° NNW
Okean O Rocket 3.0 03:55:25 10° NNE 03:59:26 35° E 04:03:25 10° SSE
Cosmos 1174 3.6 03:56:57 10° NW 04:00:58 86° ENE 04:04:14 10° SE
ATLAS 5 CENTAUR R/B 2.4 03:55:51 10° NW 04:01:39 59° SW 04:07:52 10° SSE
Resurs 1-4 Rocket 2.2 03:56:22 10° NNE 04:01:44 86° ESE 04:07:02 10° SSW
Cosmos 2278 Rocket 2.3 03:59:57 10° SSW 04:05:37 86° ESE 04:11:21 10° NNE
ARIANE 5 R/B 2.6 04:01:01 10° N 04:06:00 67° WNW 04:10:58 10° SSW
Cosmos 1452 Rocket 4.4 04:07:21 10° SW 04:12:13 37° WNW 04:17:07 10° N
